Location: Ponte Samoggia
(44.5667°N, 11.1333°E)
Time: 22:39:01
(UTC+00:00)

CZ-4C R/B - Pass Details

Date: 26 May 2022
Orbit: 582 x 1419 km, 63.4° (Epoch: 26 June)

Event Time Altitude Azimuth Distance (km) Brightness Sun altitude
Rises 00:15:15 0° 318° (NW) 3,906 6.1 -22.8°
Reaches altitude 10° 00:17:50 10° 313° (NW) 3,057 5.4 -22.7°
Maximum altitude 00:25:00 50° 242° (WSW) 1,614 3.3 -22.3°
Enters shadow 00:27:56 36° 194° (SSW) 1,994 3.5 -22.1°
